When you browse on this site, cookies collect data to enhance your experience and personalize the content and advertising you see.
Visit our Privacy Policy to learn more. By continuing to use the site, you agree to this use of cookies and data.
  • In Austria
  • List of Countries
  • For 7 days
  • Water Temperature
  • Weather Map
  • News
  • Weather Widgets
  • user-avatar
    Login

    Hourly Weather Zasluchne

    Today, 18 August, Sunday

    Time Temperature Precipitation Wind Pressure Humidity
    00:00 +14°C° 0 mm 2 mps 734 mmHg 85%
    01:00 +14°C° 0 mm 2 mps 734 mmHg 85%
    02:00 +14°C° 0 mm 2 mps 734 mmHg 84%
    03:00 +13°C° 0 mm 1 mps 734 mmHg 84%
    04:00 +13°C° 0 mm 1 mps 734 mmHg 85%
    05:00 +13°C° 0 mm 1 mps 734 mmHg 86%
    06:00 +15°C° 0 mm 1 mps 735 mmHg 81%
    07:00 +16°C° 0 mm 1 mps 735 mmHg 76%
    08:00 +19°C° 0 mm 1 mps 735 mmHg 71%
    09:00 +21°C° 0 mm 1 mps 735 mmHg 65%
    10:00 +22°C° 0 mm 1 mps 735 mmHg 59%
    11:00 +24°C° 0 mm 1 mps 735 mmHg 53%
    12:00 +24°C° 0 mm 1 mps 735 mmHg 51%
    13:00 +25°C° 0 mm 2 mps 735 mmHg 49%
    14:00 +25°C° 0 mm 2 mps 735 mmHg 48%
    15:00 +25°C° 0 mm 2 mps 735 mmHg 50%
    16:00 +25°C° 0 mm 2 mps 735 mmHg 52%
    17:00 +25°C° 0 mm 2 mps 735 mmHg 55%
    18:00 +24°C° 0 mm 1 mps 735 mmHg 60%
    19:00 +22°C° 0 mm 1 mps 735 mmHg 66%
    20:00 +20°C° 0 mm 1 mps 736 mmHg 72%
    21:00 +20°C° 0 mm 1 mps 736 mmHg 73%
    22:00 +18°C° 0 mm 2 mps 736 mmHg 74%
    23:00 +18°C° 0 mm 2 mps 736 mmHg 75%

    Tomorrow, 19 August, Monday

    Time Temperature Precipitation Wind Pressure Humidity
    00:00 +17°C° 0 mm 2 mps 736 mmHg 76%
    01:00 +17°C° 0 mm 3 mps 736 mmHg 78%
    02:00 +17°C° 0 mm 3 mps 736 mmHg 79%
    03:00 +17°C° 0 mm 3 mps 736 mmHg 79%
    04:00 +17°C° 0 mm 2 mps 736 mmHg 79%
    05:00 +16°C° 0 mm 2 mps 736 mmHg 79%
    06:00 +18°C° 0 mm 3 mps 736 mmHg 75%
    07:00 +19°C° 0 mm 3 mps 737 mmHg 71%
    08:00 +21°C° 0 mm 4 mps 737 mmHg 67%
    09:00 +23°C° 0 mm 4 mps 737 mmHg 63%
    10:00 +25°C° 0 mm 4 mps 737 mmHg 59%
    11:00 +27°C° 0 mm 4 mps 737 mmHg 55%
    12:00 +27°C° 0 mm 3 mps 738 mmHg 53%
    13:00 +28°C° 0 mm 3 mps 738 mmHg 51%
    14:00 +29°C° 0 mm 3 mps 738 mmHg 49%
    15:00 +29°C° 0 mm 2 mps 738 mmHg 50%
    16:00 +29°C° 0 mm 2 mps 738 mmHg 51%
    17:00 +29°C° 0 mm 2 mps 738 mmHg 52%
    18:00 +27°C° 0 mm 2 mps 738 mmHg 57%
    19:00 +25°C° 0 mm 2 mps 738 mmHg 61%
    20:00 +23°C° 0 mm 2 mps 738 mmHg 65%
    21:00 +21°C° 0 mm 2 mps 738 mmHg 66%
    22:00 +21°C° 0 mm 2 mps 738 mmHg 66%
    23:00 +20°C° 0 mm 2 mps 738 mmHg 67%

    Day after tomorrow, 20 August, Tuesday

    Time Temperature Precipitation Wind Pressure Humidity
    00:00 +20°C° 0 mm 2 mps 738 mmHg 67%
    01:00 +19°C° 0 mm 3 mps 738 mmHg 68%
    02:00 +19°C° 0 mm 3 mps 738 mmHg 68%
    03:00 +19°C° 0 mm 2 mps 738 mmHg 66%
    04:00 +18°C° 0 mm 2 mps 738 mmHg 64%
    05:00 +18°C° 0 mm 2 mps 738 mmHg 62%
    06:00 +19°C° 0 mm 2 mps 739 mmHg 61%
    07:00 +21°C° 0 mm 2 mps 739 mmHg 60%
    08:00 +23°C° 0 mm 2 mps 739 mmHg 59%
    09:00 +25°C° 0 mm 2 mps 739 mmHg 55%
    10:00 +26°C° 0 mm 2 mps 740 mmHg 51%
    11:00 +28°C° 0 mm 2 mps 740 mmHg 46%
    12:00 +29°C° 0 mm 2 mps 740 mmHg 45%
    13:00 +29°C° 0 mm 2 mps 740 mmHg 43%
    14:00 +30°C° 0 mm 2 mps 740 mmHg 41%
    15:00 +30°C° 0 mm 2 mps 740 mmHg 43%
    16:00 +30°C° 0 mm 1 mps 739 mmHg 44%
    17:00 +30°C° 0 mm 1 mps 739 mmHg 46%
    18:00 +28°C° 0 mm 1 mps 739 mmHg 50%
    19:00 +26°C° 0 mm 1 mps 739 mmHg 54%
    20:00 +24°C° 0 mm 1 mps 739 mmHg 58%
    21:00 +23°C° 0 mm 2 mps 740 mmHg 59%
    22:00 +23°C° 0 mm 2 mps 740 mmHg 60%
    23:00 +21°C° 0 mm 2 mps 740 mmHg 60%

    21 August, Wednesday

    Time Temperature Precipitation Wind Pressure Humidity
    00:00 +20°C° 0 mm 2 mps 740 mmHg 60%
    01:00 +20°C° 0 mm 2 mps 740 mmHg 60%
    02:00 +20°C° 0 mm 2 mps 740 mmHg 60%
    03:00 +19°C° 0 mm 2 mps 739 mmHg 59%
    04:00 +19°C° 0 mm 2 mps 739 mmHg 58%
    05:00 +18°C° 0 mm 2 mps 739 mmHg 57%
    06:00 +20°C° 0 mm 2 mps 739 mmHg 58%
    07:00 +21°C° 0 mm 3 mps 739 mmHg 59%
    08:00 +24°C° 0 mm 3 mps 740 mmHg 60%
    09:00 +25°C° 0 mm 3 mps 740 mmHg 56%
    10:00 +27°C° 0 mm 3 mps 740 mmHg 52%
    11:00 +29°C° 0 mm 3 mps 740 mmHg 48%
    12:00 +30°C° 0 mm 3 mps 739 mmHg 45%
    13:00 +30°C° 0 mm 3 mps 739 mmHg 42%
    14:00 +31°C° 0 mm 2 mps 739 mmHg 40%
    15:00 +31°C° 0 mm 2 mps 739 mmHg 42%
    16:00 +30°C° 0 mm 2 mps 738 mmHg 43%
    17:00 +30°C° 0 mm 1 mps 738 mmHg 45%
    18:00 +28°C° 0 mm 1 mps 738 mmHg 49%
    19:00 +26°C° 0 mm 1 mps 738 mmHg 53%
    20:00 +24°C° 0 mm 1 mps 738 mmHg 56%
    21:00 +23°C° 0 mm 2 mps 738 mmHg 61%
    22:00 +23°C° 0 mm 2 mps 739 mmHg 67%
    23:00 +21°C° 0 mm 3 mps 739 mmHg 72%

    22 August, Thursday

    Time Temperature Precipitation Wind Pressure Humidity
    00:00 +21°C° 0 mm 3 mps 739 mmHg 79%
    01:00 +21°C° 0 mm 4 mps 739 mmHg 85%
    02:00 +21°C° 0 mm 4 mps 739 mmHg 92%
    03:00 +20°C° 0 mm 4 mps 739 mmHg 91%
    04:00 +20°C° 0 mm 5 mps 739 mmHg 91%
    05:00 +19°C° 0 mm 5 mps 739 mmHg 90%
    06:00 +17°C° 0 mm 5 mps 739 mmHg 89%
    07:00 +17°C° 0 mm 5 mps 740 mmHg 88%
    08:00 +16°C° 0 mm 5 mps 740 mmHg 87%
    09:00 +16°C° 0 mm 5 mps 740 mmHg 84%
    10:00 +17°C° 0 mm 5 mps 741 mmHg 82%
    11:00 +17°C° 0 mm 5 mps 741 mmHg 80%
    12:00 +19°C° 0 mm 5 mps 741 mmHg 78%
    13:00 +19°C° 0 mm 5 mps 741 mmHg 76%
    14:00 +19°C° 0 mm 5 mps 741 mmHg 75%
    15:00 +19°C° 0 mm 5 mps 741 mmHg 74%
    16:00 +19°C° 0 mm 5 mps 741 mmHg 74%
    17:00 +19°C° 0 mm 5 mps 741 mmHg 74%
    18:00 +18°C° 0 mm 4 mps 741 mmHg 77%
    19:00 +18°C° 0 mm 3 mps 741 mmHg 81%
    20:00 +17°C° 0 mm 3 mps 741 mmHg 84%
    21:00 +16°C° 0 mm 2 mps 741 mmHg 86%
    22:00 +15°C° 0 mm 2 mps 741 mmHg 89%
    23:00 +15°C° 0 mm 2 mps 741 mmHg 91%

    23 August, Friday

    Time Temperature Precipitation Wind Pressure Humidity
    00:00 +14°C° 0 mm 2 mps 741 mmHg 92%
    01:00 +14°C° 0 mm 2 mps 741 mmHg 93%
    02:00 +14°C° 0 mm 2 mps 741 mmHg 94%
    03:00 +14°C° 0 mm 2 mps 741 mmHg 95%
    04:00 +13°C° 0 mm 2 mps 741 mmHg 96%
    05:00 +13°C° 0 mm 2 mps 741 mmHg 97%
    06:00 +13°C° 0 mm 3 mps 741 mmHg 92%
    07:00 +16°C° 0 mm 3 mps 741 mmHg 87%
    08:00 +17°C° 0 mm 3 mps 741 mmHg 82%
    09:00 +18°C° 0 mm 3 mps 741 mmHg 77%
    10:00 +20°C° 0 mm 4 mps 741 mmHg 71%
    11:00 +21°C° 0 mm 4 mps 741 mmHg 66%
    12:00 +22°C° 0 mm 4 mps 741 mmHg 63%
    13:00 +23°C° 0 mm 4 mps 741 mmHg 60%
    14:00 +23°C° 0 mm 4 mps 741 mmHg 57%
    15:00 +23°C° 0 mm 4 mps 741 mmHg 58%
    16:00 +23°C° 0 mm 4 mps 741 mmHg 58%
    17:00 +23°C° 0 mm 4 mps 741 mmHg 59%
    18:00 +21°C° 0 mm 3 mps 741 mmHg 64%
    19:00 +19°C° 0 mm 3 mps 741 mmHg 70%
    20:00 +18°C° 0 mm 2 mps 741 mmHg 75%
    21:00 +17°C° 0 mm 2 mps 741 mmHg 78%
    22:00 +16°C° 0 mm 3 mps 741 mmHg 80%
    23:00 +14°C° 0 mm 3 mps 742 mmHg 83%
    Show more